Regional Weather Roundup
Issued by NWS

Home | Current Version | Previous Version | Graphics & Text | Print | Product List | Glossary Off
Versions: 1 2 3 4 5 6 7 8 9 10 11 12 13 14 15 16 17 18 19 20 21 22 23 24 25 26 27 28 29 30 31 32 33 34 35 36 37 38 39 40 41 42 43 44 45 46 47 48 49 50

000
ASUS43 KIND 211009
RWRIN

WEATHER ROUNDUP FOR INDIANA
NATIONAL WEATHER SERVICE INDIANAPOLIS IN
600 AM EDT SAT OCT 21 2017

NOTE: "FAIR" INDICATES FEW OR NO CLOUDS BELOW 12,000 FEET WITH NO
SIGNIFICANT WEATHER AND/OR OBSTRUCTIONS TO VISIBILITY.

* - STATION DOES NOT REPORT WEATHER SUCH AS PRECIPITATION OR FOG.

+ - STATION NOT QUALITY CONTROLLED BY THE NATIONAL WEATHER SERVICE.
    USE DATA WITH CAUTION...ESPECIALLY DEWPOINT AND RELATIVE
    HUMIDITY OBSERVATIONS.

INZ001>003-010>013-019-020-211100-
NORTHWEST INDIANA

CITY           SKY/WX    TMP DP  RH WIND       PRES   REMARKS
GARY /AIRPORT/ MOCLDY    64  46  52 S6        30.09R
KNOX *+        CLOUDY    57  50  77 S7        30.12R
LA PORTE +     CLOUDY    56  49  76 S5        30.13R
MICHIGAN CITY+ CLOUDY    61  46  59 S9        30.11R
MONTICELLO +   CLOUDY    57  50  77 SE3       30.13R
RENSSELAER +   CLOUDY    55  45  67 S7        30.11S
VALPARAISO     CLOUDY    58  50  75 S6        30.12R

$$

LMZ046-743>745-211100-
SOUTHERN LAKE MICHIGAN

STATION/POSITION TIME  TEMP    WIND        PRES    WAVE
                       AIR SEA DIR/SP/G            HT
                 (UTC) (F)     (DEG/KT/KT) (MB)    (FT)
BURNS HARBOR     0940   62     180/ 13/ 17 1019.0R
MICHIGAN CITY    0940   61     170/ 11/ 13   N/A
5NW MICH CITY    1000   60 58  190/ 10/ 14   N/A     1

$$

INZ004-005-014>016-021>024-211100-
NORTH CENTRAL INDIANA

CITY           SKY/WX    TMP DP  RH WIND       PRES   REMARKS
GOSHEN         CLOUDY    56  47  71 S7        30.14R
LOGANSPORT +   MOCLDY    52  46  82 SE7       30.15R
PERU/GRISSOM   CLOUDY    55  50  85 S8        30.15R
SOUTH BEND     CLOUDY    58  50  75 S8        30.13R
WARSAW +       CLOUDY    55  48  76 CALM      30.15R

$$

INZ006>009-017-018-025>027-211100-
NORTHEAST INDIANA

CITY           SKY/WX    TMP DP  RH WIND       PRES   REMARKS
AUBURN +       CLOUDY    50  46  87 CALM      30.18R
FORT WAYNE     CLOUDY    53  49  86 S3        30.18R
HUNTINGTON +   PTCLDY    53  50  89 SE3       30.16S
KENDALLVILLE + CLOUDY    55  50  85 S5        30.17R

$$

INZ028-029-035-036-043>045-051>053-211100-
WEST CENTRAL INDIANA

CITY           SKY/WX    TMP DP  RH WIND       PRES   REMARKS
GREENCASTLE +  CLOUDY    52  46  82 CALM      30.15R
LAFAYETTE      PTCLDY    54  49  83 CALM      30.13R
TERRE HAUTE    PTCLDY    53  47  79 S3        30.14R

$$

INZ030>032-037>040-046>048-054>057-064-065-211100-
CENTRAL INDIANA

CITY           SKY/WX    TMP DP  RH WIND       PRES   REMARKS
CP ATTERBURY + CLOUDY    50  46  87 CALM      30.18R
FRANKFORT +    MOCLDY    54  50  86 CALM      30.16R
GREENWOOD *+   MOCLDY    59  53  79 S8        30.17R
INDIANAPOLIS   MOCLDY    56  50  80 SE7       30.16R
-EAGLE CREEK   MOCLDY    55  49  80 SE5       30.15R
KOKOMO +       MOCLDY    53  49  86 CALM      30.16R
MARION +       CLOUDY    52  46  82 SE5       30.17  FOG
MT COMFORT *+  CLOUDY    55  54  94 S5        30.17S
SHELBYVILLE    PTCLDY    56  49  77 SE6       30.16S
ZIONSVILLE +   CLOUDY    53  49  89 SE3       30.16S

$$

INZ033-034-041-042-049-050-058-059-211100-
EAST CENTRAL INDIANA

CITY           SKY/WX    TMP DP  RH WIND       PRES   REMARKS
MUNCIE         CLOUDY    60  51  72 S6        30.17S
RICHMOND +     CLOUDY    52  52 100 SE7       30.21R

$$

INZ060-061-067>069-081>083-085>088-211100-
SOUTHWEST INDIANA

CITY           SKY/WX    TMP DP  RH WIND       PRES   REMARKS
EVANSVILLE     MOCLDY    52  49  89 CALM      30.15R
HUNTINGBURG +  CLOUDY    57  49  74 S5        30.16R
WASHINGTON +   CLOUDY    50  48  92 SE3       30.15R

$$

INZ062-063-066-070>080-084-089>092-211100-
SOUTH CENTRAL AND SOUTHEAST INDIANA

CITY           SKY/WX    TMP DP  RH WIND       PRES   REMARKS
BEDFORD +      PTCLDY    54  48  82 CALM      30.16R
BLOOMINGTON    PTCLDY    56  48  74 SE9       30.16R
MADISON *+     CLOUDY    50  48  93 E5        30.20S
NORTH VERNON + PTCLDY    52  48  87 SE3       30.18S
SEYMOUR +      PTCLDY    52  48  87 SE5       30.17S

$$




USA.gov is the U.S. government's official web portal to all federal, state and local government web resources and services.